EW7704 Weather Reports


Display with metric or nautical units.
time (UTC)temp
F
wind
direction
speed
MPH
gust
MPH
rain 1hr
in
rain 24hr
in
rain mn
in
humidity
%
barometer
mb
20260507123543 40 360 1.0 3.0 0.00 0.48 0.00 70 1017.2
20260507123043 40 360 0.0 2.0 0.00 0.48 0.00 71 1017.2
20260507122545 40 360 0.0 3.0 0.00 0.48 0.00 69 1017.1
20260507122045 39 360 1.0 3.0 0.00 0.48 0.00 69 1017.1
20260507121542 39 360 0.0 2.0 0.00 0.48 0.00 70 1017.2
20260507121044 39 360 1.0 2.0 0.00 0.48 0.00 69 1017.1
20260507120541 39 360 0.0 2.0 0.00 0.48 0.00 68 1017.1
20260507120040 39 360 0.0 3.0 0.00 0.48 0.00 68 1017.1
20260507115541 39 360 0.0 3.0 0.00 0.48 0.00 69 1017.0
20260507115040 39 360 1.0 4.0 0.00 0.48 0.00 69 1017.0
20260507114541 39 360 1.0 4.0 0.00 0.48 0.00 69 1017.1
20260507114041 39 360 1.0 4.0 0.00 0.48 0.00 69 1017.1
20260507113540 39 360 0.0 4.0 0.00 0.48 0.00 68 1017.1
20260507113039 39 360 1.0 4.0 0.00 0.48 0.00 67 1017.0
20260507112539 40 360 1.0 3.0 0.00 0.48 0.00 67 1017.0
20260507112039 39 360 0.0 2.0 0.00 0.48 0.00 69 1017.1
20260507111539 38 360 0.0 2.0 0.00 0.48 0.00 70 1017.0
20260507111037 38 360 0.0 4.0 0.00 0.48 0.00 71 1017.1
20260507110537 38 360 1.0 4.0 0.00 0.48 0.00 70 1017.1
20260507110048 38 360 1.0 4.0 0.00 0.48 0.00 70 1017.2
20260507105536 38 360 2.0 4.0 0.00 0.48 0.00 70 1017.2
20260507105037 38 360 1.0 3.0 0.00 0.48 0.00 68 1017.2
20260507104536 39 360 0.0 2.0 0.00 0.48 0.00 67 1017.2
20260507104037 38 360 0.0 2.0 0.00 0.48 0.00 68 1017.1
20260507103536 38 360 0.0 2.0 0.00 0.48 0.00 68 1017.1
20260507103035 38 360 0.0 2.0 0.00 0.48 0.00 68 1017.1
20260507102534 38 360 0.0 1.0 0.00 0.48 0.00 67 1017.3
20260507102034 39 360 0.0 2.0 0.00 0.48 0.00 66 1017.4
20260507101541 39 360 0.0 2.0 0.00 0.48 0.00 64 1017.2
20260507101033 40 360 0.0 2.0 0.00 0.48 0.00 62 1017.4
20260507100531 40 360 0.0 2.0 0.00 0.48 0.00 62 1017.5
20260507100036 40 360 0.0 1.0 0.00 0.48 0.00 62 1017.6
20260507095531 40 360 0.0 2.0 0.00 0.48 0.00 63 1017.6
20260507095031 40 360 0.0 2.0 0.00 0.48 0.00 63 1017.5
20260507094531 40 360 0.0 2.0 0.00 0.48 0.00 63 1017.6
20260507094029 40 360 0.0 4.0 0.00 0.48 0.00 62 1017.6
20260507093529 41 360 1.0 4.0 0.00 0.48 0.00 61 1017.7
20260507093029 41 360 1.0 5.0 0.00 0.48 0.00 60 1017.7
20260507092531 41 360 1.0 5.0 0.00 0.48 0.00 61 1017.8
20260507092027 41 360 2.0 4.0 0.00 0.48 0.00 61 1017.8
20260507091530 40 360 1.0 4.0 0.00 0.48 0.00 62 1017.8
20260507091025 40 360 1.0 4.0 0.00 0.48 0.00 62 1017.8
20260507090524 40 360 0.0 3.0 0.00 0.48 0.00 63 1017.8
20260507090034 40 360 0.0 4.0 0.00 0.48 0.00 64 1017.8
20260507085522 39 360 0.0 4.0 0.00 0.48 0.00 65 1017.8
20260507085023 40 360 0.0 5.0 0.00 0.48 0.00 64 1017.6
20260507084532 40 360 1.0 5.0 0.00 0.48 0.00 64 1017.7
20260507084023 39 360 1.0 4.0 0.00 0.48 0.00 64 1017.6
20260507083520 39 360 0.0 4.0 0.00 0.48 0.00 66 1017.6
20260507083018 38 360 0.0 3.0 0.00 0.48 0.00 69 1017.7
20260507082519 37 360 1.0 3.0 0.00 0.48 0.00 72 1017.7
20260507082020 36 360 0.0 2.0 0.00 0.48 0.00 73 1017.7
20260507081518 36 360 0.0 3.0 0.00 0.48 0.00 73 1017.8
20260507081016 37 360 1.0 3.0 0.00 0.48 0.00 71 1017.8
20260507080516 37 360 0.0 3.0 0.00 0.48 0.00 71 1018.0
20260507080014 37 360 0.0 3.0 0.00 0.48 0.00 71 1018.0
20260507075512 37 360 0.0 4.0 0.00 0.49 0.00 72 1018.0
20260507075011 37 360 1.0 6.0 0.00 0.49 0.00 73 1018.1
20260507074523 37 360 2.0 6.0 0.00 0.49 0.00 75 1018.2
20260507074008 37 360 0.0 4.0 0.00 0.49 0.00 76 1018.2
20260507073507 36 186 2.0 4.0 0.00 0.49 0.00 79 1018.3
20260507073006 35 122 0.0 4.0 0.00 0.49 0.00 83 1018.3
20260507072507 34 123 0.0 4.0 0.00 0.49 0.00 87 1018.4
20260507072002 34 119 1.0 4.0 0.00 0.49 0.00 89 1018.5
20260507071502 33 176 1.0 3.0 0.00 0.49 0.00 90 1018.5
20260507071103 33 125 0.0 2.0 0.00 0.49 0.00 90 1018.5
20260507070602 32 155 0.0 5.0 0.00 0.49 0.00 90 1018.6
20260507070108 32 151 1.0 5.0 0.00 0.49 0.00 90 1018.6
20260507065558 32 142 0.0 1.0 0.00 0.49 0.00 89 1018.7
20260507065159 32 142 0.0 2.0 0.00 0.49 0.00 89 1018.8
20260507064559 32 144 0.0 2.0 0.00 0.49 0.00 89 1018.9
20260507064055 32 148 0.0 2.0 0.00 0.49 0.00 89 1018.9
20260507063553 33 148 0.0 2.0 0.00 0.49 0.00 89 1018.9
20260507063055 33 172 0.0 2.0 0.00 0.49 0.00 89 1019.0
20260507062552 33 171 0.0 2.0 0.00 0.49 0.00 88 1019.1
20260507062051 33 175 0.0 1.0 0.00 0.49 0.00 88 1019.2
20260507061552 33 173 0.0 1.0 0.00 0.49 0.00 88 1019.3
20260507061049 33 173 0.0 1.0 0.00 0.49 0.00 88 1019.3
20260507060551 33 173 0.0 1.0 0.00 0.49 0.00 88 1019.3
20260507060103 33 173 0.0 3.0 0.00 0.49 0.00 88 1019.2
20260507055549 33 175 0.0 3.0 0.00 0.50 0.49 88 1019.2
20260507055045 33 165 0.0 2.0 0.00 0.50 0.49 88 1019.4
20260507054553 33 115 0.0 2.0 0.00 0.50 0.49 88 1019.4
20260507054046 34 117 0.0 2.0 0.00 0.50 0.49 89 1019.4
20260507053546 34 135 0.0 2.0 0.00 0.50 0.49 89 1019.5
20260507053051 33 138 0.0 2.0 0.00 0.50 0.49 89 1019.6
20260507052646 33 122 0.0 1.0 0.00 0.50 0.49 89 1019.8
20260507052045 33 109 0.0 2.0 0.00 0.50 0.49 89 1019.9
20260507051544 33 114 0.0 2.0 0.00 0.50 0.49 89 1020.0
20260507051044 33 102 0.0 1.0 0.00 0.50 0.49 89 1020.0
20260507050546 33 98 0.0 1.0 0.00 0.50 0.49 89 1020.1
20260507050044 33 98 0.0 0.0 0.00 0.50 0.49 88 1020.4
20260507045546 33 101 0.0 0.0 0.00 0.50 0.49 89 1020.3
20260507045045 33 103 0.0 0.0 0.00 0.50 0.49 88 1020.4
20260507044542 33 104 0.0 1.0 0.00 0.50 0.49 87 1020.4
20260507044042 34 101 0.0 1.0 0.00 0.50 0.49 87 1020.5
20260507043541 34 101 0.0 0.0 0.00 0.50 0.49 87 1020.6
20260507043042 34 104 0.0 0.0 0.00 0.50 0.49 86 1020.6
20260507042541 34 105 0.0 1.0 0.00 0.50 0.49 86 1020.6
20260507042043 35 104 0.0 1.0 0.00 0.50 0.49 85 1020.7
20260507041541 35 105 0.0 0.0 0.00 0.50 0.49 85 1020.8
20260507041040 35 106 0.0 2.0 0.00 0.50 0.49 84 1020.8
20260507040541 35 107 0.0 2.0 0.00 0.50 0.49 84 1020.8
20260507040042 35 106 0.0 1.0 0.00 0.50 0.49 84 1020.9
20260507035540 35 106 0.0 2.0 0.00 0.50 0.49 84 1020.8
20260507035041 35 106 0.0 3.0 0.00 0.50 0.49 85 1020.9
20260507034552 35 93 1.0 3.0 0.00 0.50 0.49 85 1020.9
20260507034040 35 101 0.0 0.0 0.00 0.50 0.49 85 1021.1
20260507033539 35 103 0.0 0.0 0.00 0.50 0.49 85 1021.2
20260507033043 35 100 0.0 0.0 0.00 0.50 0.49 84 1021.2
20260507032539 35 104 0.0 0.0 0.00 0.50 0.49 83 1021.1
20260507032039 36 96 0.0 0.0 0.00 0.50 0.49 82 1021.1
20260507031538 36 103 0.0 0.0 0.00 0.50 0.49 82 1021.0
20260507031038 36 104 0.0 0.0 0.00 0.50 0.49 81 1021.0
20260507030537 36 360 0.0 0.0 0.00 0.50 0.49 80 1021.1
20260507030039 37 360 0.0 0.0 0.00 0.50 0.49 80 1021.0
20260507025540 37 360 0.0 0.0 0.00 0.50 0.49 78 1020.8
20260507025038 37 360 0.0 0.0 0.00 0.50 0.49 79 1020.9
20260507024550 37 360 0.0 0.0 0.00 0.50 0.49 78 1020.9
20260507024038 37 360 0.0 0.0 0.00 0.50 0.49 78 1020.8
20260507023539 37 360 0.0 0.0 0.00 0.50 0.49 77 1020.9
20260507023037 38 360 0.0 0.0 0.00 0.50 0.49 76 1020.7
20260507022537 38 360 0.0 1.0 0.00 0.50 0.49 75 1020.7
20260507022038 38 360 0.0 1.0 0.00 0.50 0.49 74 1020.7
20260507021545 38 360 0.0 3.0 0.00 0.50 0.49 73 1020.7
20260507021036 39 360 0.0 3.0 0.00 0.50 0.49 72 1020.5
20260507020538 39 360 0.0 2.0 0.00 0.50 0.49 71 1020.6
20260507020036 39 360 0.0 3.0 0.00 0.50 0.49 71 1020.5
20260507015536 39 360 0.0 5.0 0.00 0.51 0.49 71 1020.5
20260507015036 40 360 2.0 5.0 0.00 0.51 0.49 70 1020.5
20260507014541 40 360 1.0 4.0 0.00 0.51 0.49 70 1020.5
20260507014036 40 360 0.0 4.0 0.00 0.51 0.49 70 1020.3
20260507013535 40 360 0.0 6.0 0.00 0.51 0.49 70 1020.4
20260507013035 40 360 2.0 6.0 0.00 0.51 0.49 69 1020.3
20260507012538 40 360 1.0 5.0 0.00 0.51 0.49 68 1020.4
20260507012037 40 360 1.0 5.0 0.00 0.51 0.49 69 1020.4
20260507011541 41 360 1.0 5.0 0.00 0.51 0.49 69 1020.4
20260507011036 41 360 1.0 6.0 0.00 0.51 0.49 68 1020.5
20260507010534 41 360 1.0 5.0 0.00 0.51 0.49 68 1020.5
20260507010034 41 360 1.0 8.0 0.00 0.51 0.49 68 1020.6
20260507005635 41 360 2.0 8.0 0.00 0.53 0.49 68 1020.5
20260507005033 41 360 1.0 5.0 0.00 0.53 0.49 66 1020.6
20260507004533 41 360 2.0 5.0 0.00 0.53 0.49 66 1020.5
20260507004035 41 360 0.0 6.0 0.00 0.53 0.49 67 1020.6
20260507003533 41 360 2.0 6.0 0.00 0.53 0.49 64 1020.7
20260507003033 42 284 1.0 5.0 0.00 0.53 0.49 65 1020.8
20260507002535 42 136 2.0 6.0 0.00 0.53 0.49 66 1020.8
20260507002032 42 96 2.0 6.0 0.00 0.53 0.49 65 1020.9
20260507001541 42 131 3.0 7.0 0.00 0.53 0.49 66 1020.9
20260507001034 42 167 2.0 5.0 0.00 0.53 0.49 66 1020.9
20260507000531 42 198 3.0 5.0 0.00 0.53 0.49 65 1020.9
20260507000033 42 165 1.0 7.0 0.00 0.53 0.49 64 1021.1
20260506235531 42 14 1.0 10.0 0.00 0.53 0.49 66 1021.2
20260506235030 42 202 2.0 10.0 0.00 0.53 0.49 67 1021.2
20260506234531 43 112 0.0 4.0 0.00 0.53 0.49 66 1021.3
20260506234031 42 175 1.0 9.0 0.00 0.53 0.49 67 1021.4
20260506233531 42 109 5.0 9.0 0.00 0.53 0.49 64 1021.4
20260506233030 42 158 1.0 8.0 0.00 0.53 0.49 68 1021.4
20260506232530 42 186 3.0 8.0 0.00 0.53 0.49 66 1021.5
20260506232030 42 126 0.0 7.0 0.00 0.53 0.49 68 1021.5
20260506231530 42 99 2.0 7.0 0.00 0.53 0.49 68 1021.4
20260506231029 41 121 2.0 7.0 0.00 0.53 0.49 68 1021.4
20260506230529 42 160 4.0 7.0 0.00 0.53 0.49 66 1021.4
20260506230030 42 313 3.0 7.0 0.00 0.53 0.49 68 1021.4
20260506225529 42 203 2.0 7.0 0.00 0.57 0.49 67 1021.5
20260506225029 43 88 2.0 8.0 0.00 0.57 0.49 66 1021.5
20260506224528 43 202 1.0 7.0 0.00 0.57 0.49 69 1021.5
20260506224028 42 217 2.0 8.0 0.00 0.57 0.49 68 1021.5
20260506223527 42 248 2.0 8.0 0.00 0.57 0.49 69 1021.6
20260506223027 42 216 2.0 7.0 0.00 0.57 0.49 70 1021.7
20260506222527 41 92 3.0 7.0 0.00 0.57 0.49 65 1021.9
20260506222026 43 253 2.0 7.0 0.00 0.57 0.49 70 1021.9
20260506221526 42 293 1.0 9.0 0.00 0.57 0.49 71 1022.0
20260506221025 42 131 4.0 9.0 0.00 0.57 0.49 67 1022.0
20260506220526 42 181 2.0 7.0 0.00 0.57 0.49 72 1022.1
20260506220025 42 235 1.0 7.0 0.00 0.57 0.49 71 1022.2
20260506215523 42 234 2.0 6.0 0.00 0.59 0.49 70 1022.2
20260506215024 42 166 2.0 9.0 0.00 0.59 0.49 71 1022.4
20260506214523 42 199 2.0 9.0 0.00 0.59 0.49 73 1022.4
20260506214026 41 137 2.0 6.0 0.00 0.59 0.49 69 1022.4
20260506213523 41 15 2.0 6.0 0.00 0.59 0.49 69 1022.5
20260506213022 41 150 2.0 7.0 0.00 0.59 0.49 71 1022.6
20260506212522 40 96 0.0 4.0 0.00 0.59 0.49 71 1022.6
20260506212022 40 219 2.0 4.0 0.00 0.59 0.49 71 1022.7
20260506211521 40 253 0.0 8.0 0.00 0.59 0.49 67 1022.8
20260506211022 42 228 2.0 8.0 0.00 0.59 0.49 71 1022.8
20260506210520 41 244 1.0 5.0 0.00 0.59 0.49 72 1022.8
20260506210021 41 191 1.0 5.0 0.00 0.59 0.49 73 1023.0
20260506205522 41 217 1.0 7.0 0.00 0.69 0.49 73 1023.0
20260506205018 40 230 2.0 7.0 0.00 0.69 0.49 74 1023.1
20260506204523 38 33 1.0 5.0 0.00 0.69 0.49 72 1023.2
20260506204019 38 360 0.0 4.0 0.00 0.69 0.49 71 1023.3
20260506203517 39 360 1.0 5.0 0.00 0.69 0.49 76 1023.3
20260506203017 38 230 2.0 5.0 0.00 0.69 0.49 76 1023.4
20260506202517 38 326 0.0 3.0 0.01 0.69 0.49 78 1023.4
20260506202017 38 256 1.0 4.0 0.02 0.69 0.49 77 1023.5
20260506201524 39 187 1.0 5.0 0.02 0.69 0.49 78 1023.6
20260506201017 39 246 1.0 5.0 0.03 0.69 0.49 77 1023.7
20260506200515 40 236 1.0 4.0 0.04 0.69 0.49 77 1023.7
20260506200016 40 221 1.0 7.0 0.05 0.69 0.49 79 1023.8
20260506195513 38 210 2.0 7.0 0.06 0.73 0.49 81 1023.8
20260506195015 37 137 1.0 4.0 0.08 0.73 0.49 81 1023.9
20260506194513 36 21 1.0 5.0 0.09 0.73 0.49 79 1023.9
20260506194012 37 16 1.0 4.0 0.10 0.73 0.49 80 1023.9
20260506193511 37 28 1.0 4.0 0.11 0.73 0.49 78 1024.0
20260506193011 37 88 1.0 4.0 0.11 0.72 0.48 78 1024.0
20260506192510 36 94 2.0 4.0 0.12 0.72 0.48 78 1024.1
20260506192010 36 48 0.0 4.0 0.11 0.71 0.47 79 1024.1
20260506191510 36 30 1.0 4.0 0.11 0.70 0.46 79 1024.2
20260506191009 36 53 2.0 6.0 0.11 0.69 0.45 78 1024.1
20260506190508 36 29 2.0 6.0 0.12 0.69 0.45 78 1024.2
20260506190007 37 47 1.0 4.0 0.12 0.68 0.44 79 1024.2
20260506185506 36 38 1.0 3.0 0.11 0.68 0.42 79 1024.3
20260506185009 36 93 0.0 4.0 0.12 0.67 0.41 81 1024.4
20260506184516 35 88 1.0 7.0 0.12 0.66 0.40 83 1024.3
20260506184004 35 100 3.0 7.0 0.12 0.65 0.39 83 1024.4
20260506183506 34 82 0.0 4.0 0.13 0.64 0.38 84 1024.5
20260506183004 34 49 1.0 3.0 0.14 0.63 0.37 85 1024.4
20260506182502 34 67 0.0 2.0 0.14 0.62 0.36 85 1024.5
20260506182002 34 67 1.0 2.0 0.15 0.61 0.35 86 1024.5
20260506181503 34 360 1.0 3.0 0.17 0.61 0.35 88 1024.5
20260506181100 34 360 1.0 4.0 0.17 0.60 0.34 88 1024.5
20260506181003 34 360 1.0 4.0 0.17 0.60 0.34 87 1024.4
20260506180601 34 20 2.0 4.0 0.17 0.59 0.33 86 1024.4
20260506180101 35 14 2.0 4.0 0.17 0.57 0.32 85 1024.4
20260506175559 36 347 0.0 4.0 0.16 0.59 0.31 88 1024.3
20260506175057 35 272 0.0 4.0 0.15 0.56 0.28 89 1024.4
20260506174607 35 282 0.0 4.0 0.15 0.56 0.28 89 1024.4
20260506174101 35 306 0.0 4.0 0.14 0.55 0.27 90 1024.4
20260506173556 35 348 0.0 3.0 0.13 0.53 0.25 89 1024.3
20260506173126 36 9 1.0 4.0 0.12 0.52 0.24 90 1024.2
20260506172555 36 242 1.0 5.0 0.11 0.50 0.22 90 1024.3
20260506172054 36 232 0.0 4.0 0.09 0.48 0.20 91 1024.3
20260506171554 35 360 1.0 4.0 0.08 0.46 0.18 90 1024.3
20260506171052 34 360 0.0 4.0 0.07 0.45 0.17 91 1024.3
20260506170553 34 360 2.0 4.0 0.06 0.44 0.16 92 1024.2
20260506170050 34 360 1.0 3.0 0.06 0.43 0.15 93 1024.2
20260506165550 34 360 1.0 3.0 0.06 0.45 0.15 94 1024.2
20260506165049 33 360 0.0 3.0 0.06 0.44 0.14 94 1024.3
20260506164548 33 360 1.0 2.0 0.05 0.43 0.13 95 1024.2
20260506164047 33 360 0.0 3.0 0.06 0.43 0.13 95 1024.1
20260506163546 33 360 1.0 4.0 0.05 0.42 0.12 95 1024.0
20260506163049 33 14 0.0 4.0 0.06 0.42 0.12 95 1023.9
20260506162544 33 340 2.0 3.0 0.05 0.41 0.11 96 1023.8
20260506162042 32 211 1.0 4.0 0.05 0.41 0.11 95 1023.6
20260506161544 33 92 1.0 4.0 0.05 0.40 0.10 96 1023.5
20260506161044 33 226 1.0 4.0 0.05 0.40 0.10 96 1023.4
20260506160540 33 59 2.0 5.0 0.06 0.40 0.10 96 1023.5
20260506160040 33 360 1.0 5.0 0.05 0.39 0.09 96 1023.5
20260506155538 32 26 1.0 3.0 0.05 0.40 0.09 96 1023.5
20260506155038 32 84 1.0 5.0 0.04 0.39 0.08 96 1023.6
20260506154539 32 360 1.0 5.0 0.05 0.39 0.08 96 1023.6
20260506154036 32 311 1.0 4.0 0.04 0.38 0.07 97 1023.4
20260506153536 32 254 1.0 4.0 0.04 0.38 0.07 97 1023.3
20260506153042 32 347 2.0 4.0 0.03 0.37 0.06 97 1023.3
20260506152534 32 39 1.0 4.0 0.04 0.37 0.06 97 1023.2
20260506152035 32 303 1.0 4.0 0.04 0.37 0.06 97 1023.2
20260506151533 32 180 1.0 3.0 0.03 0.36 0.05 97 1023.2
20260506151033 32 271 0.0 2.0 0.03 0.36 0.05 97 1023.2
20260506150530 32 313 1.0 3.0 0.02 0.35 0.04 97 1023.0
20260506150030 32 15 1.0 3.0 0.02 0.35 0.04 97 1023.0
20260506145534 32 95 1.0 5.0 0.03 0.37 0.04 97 1023.1
20260506145029 32 321 2.0 5.0 0.02 0.36 0.03 97 1023.1
20260506144549 32 302 1.0 3.0 0.02 0.36 0.03 97 1023.0
20260506144028 32 144 1.0 4.0 0.02 0.36 0.03 97 1023.0
20260506143528 32 209 1.0 5.0 0.02 0.36 0.03 97 1022.9
20260506143027 32 360 0.0 5.0 0.02 0.36 0.03 97 1022.8
20260506142526 32 19 0.0 2.0 0.01 0.35 0.02 97 1022.7
20260506142026 32 296 0.0 4.0 0.01 0.35 0.02 97 1022.7
20260506141526 32 51 0.0 3.0 0.01 0.35 0.02 97 1022.7
20260506141026 32 78 1.0 3.0 0.01 0.35 0.02 97 1022.7
20260506140526 32 50 0.0 3.0 0.01 0.35 0.02 97 1022.6
20260506140038 32 225 1.0 4.0 0.01 0.35 0.02 97 1022.6
20260506135523 32 248 1.0 4.0 0.00 0.36 0.01 97 1022.6
20260506135024 32 275 0.0 3.0 0.00 0.36 0.01 97 1022.6
20260506134531 32 310 0.0 3.0 0.00 0.36 0.01 97 1022.5
20260506134027 32 245 0.0 3.0 0.00 0.36 0.01 97 1022.5
20260506133523 32 245 0.0 3.0 0.00 0.36 0.01 97 1022.5
20260506133024 32 296 0.0 3.0 0.00 0.36 0.01 97 1022.4
20260506132522 32 284 0.0 3.0 0.00 0.36 0.01 97 1022.3
20260506132021 32 309 0.0 3.0 0.00 0.36 0.01 97 1022.2
20260506131533 32 273 0.0 2.0 0.00 0.36 0.01 97 1022.1
20260506131019 31 340 0.0 2.0 0.00 0.36 0.01 97 1021.9
20260506130518 31 340 0.0 2.0 0.00 0.36 0.01 97 1021.8
20260506130021 31 340 0.0 1.0 0.00 0.36 0.01 97 1021.8
20260506125517 31 339 0.0 0.0 0.00 0.40 0.01 97 1021.6
20260506125016 31 298 0.0 0.0 0.00 0.40 0.01 97 1021.6
20260506124516 31 234 0.0 0.0 0.00 0.40 0.01 97 1021.5
20260506124015 32 262 0.0 0.0 0.00 0.40 0.01 97 1021.3